TimeEDT,TemperatureF,Dew PointF,Humidity,Sea Level PressureIn,VisibilityMPH,Wind Direction,Wind SpeedMPH,Gust SpeedMPH,PrecipitationIn,Events,Conditions,WindDirDegrees,DateUTC
12:15 AM,44.8,30.4,57,30.03,10.0,North,6.9,-,N/A,,Clear,360,2013-04-02 04:15:00
12:35 AM,43.7,29.8,58,30.04,10.0,North,4.6,-,N/A,,Scattered Clouds,360,2013-04-02 04:35:00
12:55 AM,43.7,29.1,57,30.04,10.0,NNE,4.6,-,N/A,,Scattered Clouds,20,2013-04-02 04:55:00
1:15 AM,43.2,28.4,56,30.04,10.0,NNE,3.5,-,N/A,,Clear,30,2013-04-02 05:15:00
1:35 AM,41.2,28.6,61,30.05,10.0,Calm,Calm,-,N/A,,Clear,0,2013-04-02 05:35:00
1:55 AM,41.4,28.0,59,30.05,10.0,North,4.6,-,N/A,,Clear,360,2013-04-02 05:55:00
2:15 AM,41.4,27.5,58,30.06,10.0,North,3.5,-,N/A,,Clear,350,2013-04-02 06:15:00
2:35 AM,38.8,28.0,65,30.06,10.0,Calm,Calm,-,N/A,,Clear,0,2013-04-02 06:35:00
2:55 AM,35.2,28.9,78,30.06,10.0,Calm,Calm,-,N/A,,Clear,0,2013-04-02 06:55:00
3:15 AM,34.7,28.4,78,30.06,10.0,Calm,Calm,-,N/A,,Clear,0,2013-04-02 07:15:00
3:35 AM,33.4,27.9,80,30.06,10.0,NNW,5.8,-,N/A,,Clear,330,2013-04-02 07:35:00
3:55 AM,33.3,28.0,81,30.06,10.0,NW,3.5,-,N/A,,Clear,310,2013-04-02 07:55:00
4:15 AM,32.4,27.7,83,30.07,10.0,NW,3.5,-,N/A,,Clear,320,2013-04-02 08:15:00
4:35 AM,32.0,27.5,83,30.07,10.0,Calm,Calm,-,N/A,,Clear,0,2013-04-02 08:35:00
4:55 AM,31.3,27.3,85,30.08,10.0,NNW,3.5,-,N/A,,Clear,330,2013-04-02 08:55:00
5:15 AM,30.9,27.5,87,30.09,10.0,NW,4.6,-,N/A,,Clear,320,2013-04-02 09:15:00
5:35 AM,30.2,27.1,88,30.10,10.0,NNW,3.5,-,N/A,,Clear,330,2013-04-02 09:35:00
5:55 AM,29.7,26.6,88,30.10,10.0,NW,3.5,-,N/A,,Clear,320,2013-04-02 09:55:00
6:15 AM,30.4,26.8,86,30.11,10.0,Calm,Calm,-,N/A,,Clear,0,2013-04-02 10:15:00
6:35 AM,29.5,25.5,85,30.12,10.0,NW,3.5,-,N/A,,Clear,320,2013-04-02 10:35:00
6:55 AM,30.0,25.5,83,30.13,10.0,NW,3.5,-,N/A,,Clear,320,2013-04-02 10:55:00
7:15 AM,30.2,25.3,82,30.15,10.0,Calm,Calm,-,N/A,,Clear,0,2013-04-02 11:15:00
7:35 AM,31.1,25.3,79,30.16,10.0,NNW,4.6,-,N/A,,Clear,330,2013-04-02 11:35:00
7:55 AM,34.5,25.9,71,30.17,10.0,NNW,4.6,-,N/A,,Clear,340,2013-04-02 11:55:00
8:15 AM,37.9,26.4,63,30.18,10.0,NNW,5.8,-,N/A,,Clear,340,2013-04-02 12:15:00
8:35 AM,40.5,24.3,52,30.18,10.0,NNW,8.1,-,N/A,,Clear,340,2013-04-02 12:35:00
8:55 AM,41.9,23.5,48,30.18,10.0,North,8.1,-,N/A,,Clear,360,2013-04-02 12:55:00
9:15 AM,43.2,23.2,45,30.18,10.0,NNW,8.1,-,N/A,,Clear,330,2013-04-02 13:15:00
9:35 AM,44.4,22.1,41,30.18,10.0,NNW,5.8,-,N/A,,Clear,340,2013-04-02 13:35:00
9:55 AM,45.3,21.6,39,30.18,10.0,North,8.1,-,N/A,,Clear,360,2013-04-02 13:55:00
10:35 AM,47.7,21.2,35,30.19,10.0,NNW,9.2,-,N/A,,Mostly Cloudy,340,2013-04-02 14:35:00
10:55 AM,47.1,20.8,35,30.18,10.0,NNW,8.1,-,N/A,,Mostly Cloudy,330,2013-04-02 14:55:00
11:15 AM,46.9,19.4,34,30.19,10.0,NW,5.8,-,N/A,,Mostly Cloudy,310,2013-04-02 15:15:00
11:35 AM,48.6,20.3,33,30.18,10.0,NNW,9.2,-,N/A,,Scattered Clouds,330,2013-04-02 15:35:00
11:55 AM,49.8,18.3,29,30.18,10.0,WNW,6.9,-,N/A,,Scattered Clouds,300,2013-04-02 15:55:00
12:15 PM,51.3,19.2,28,30.17,10.0,NNW,4.6,-,N/A,,Scattered Clouds,330,2013-04-02 16:15:00
12:35 PM,51.6,18.9,28,30.17,10.0,North,3.5,-,N/A,,Clear,350,2013-04-02 16:35:00
12:55 PM,52.2,17.1,25,30.15,10.0,NNW,3.5,-,N/A,,Clear,330,2013-04-02 16:55:00
1:15 PM,53.1,17.8,25,30.14,10.0,Calm,Calm,-,N/A,,Clear,0,2013-04-02 17:15:00
1:35 PM,53.6,16.7,23,30.13,10.0,North,5.8,-,N/A,,Clear,360,2013-04-02 17:35:00
1:55 PM,55.6,14.7,20,30.12,10.0,NNW,11.5,-,N/A,,Clear,330,2013-04-02 17:55:00
2:15 PM,55.8,14.5,20,30.12,10.0,West,10.4,-,N/A,,Clear,260,2013-04-02 18:15:00
2:35 PM,56.3,15.3,20,30.11,10.0,NNW,12.7,18.4,N/A,,Clear,330,2013-04-02 18:35:00
2:55 PM,56.3,15.1,20,30.10,10.0,SW,5.8,-,N/A,,Clear,230,2013-04-02 18:55:00
3:15 PM,57.2,14.2,18,30.09,10.0,West,9.2,17.3,N/A,,Clear,270,2013-04-02 19:15:00
3:35 PM,57.2,14.5,19,30.08,10.0,NNW,4.6,16.1,N/A,,Clear,340,2013-04-02 19:35:00
3:55 PM,57.2,15.3,19,30.08,10.0,WNW,8.1,-,N/A,,Clear,290,2013-04-02 19:55:00
4:15 PM,57.6,15.6,19,30.07,10.0,West,6.9,-,N/A,,Clear,260,2013-04-02 20:15:00
4:35 PM,58.3,15.4,19,30.08,10.0,West,6.9,-,N/A,,Clear,270,2013-04-02 20:35:00
4:55 PM,58.1,13.1,17,30.07,10.0,WSW,5.8,-,N/A,,Clear,240,2013-04-02 20:55:00
5:15 PM,58.1,12.6,17,30.08,10.0,West,5.8,-,N/A,,Clear,270,2013-04-02 21:15:00
5:35 PM,57.2,10.8,16,30.08,10.0,WNW,9.2,16.1,N/A,,Clear,300,2013-04-02 21:35:00
5:55 PM,57.2,9.1,15,30.08,10.0,WNW,5.8,19.6,N/A,,Clear,290,2013-04-02 21:55:00
6:15 PM,56.8,12.0,17,30.08,10.0,WNW,6.9,-,N/A,,Clear,300,2013-04-02 22:15:00
6:35 PM,54.3,12.2,19,30.09,10.0,NW,9.2,-,N/A,,Clear,310,2013-04-02 22:35:00
6:55 PM,54.1,12.0,19,30.09,10.0,WNW,5.8,-,N/A,,Clear,300,2013-04-02 22:55:00
7:15 PM,52.9,16.3,24,30.10,10.0,NW,5.8,-,N/A,,Clear,310,2013-04-02 23:15:00
7:35 PM,52.0,15.6,24,30.10,10.0,NW,4.6,-,N/A,,Clear,310,2013-04-02 23:35:00
7:55 PM,50.9,17.6,27,30.10,10.0,Calm,Calm,-,N/A,,Clear,0,2013-04-02 23:55:00
8:15 PM,50.2,17.8,28,30.10,10.0,NW,3.5,-,N/A,,Clear,310,2013-04-03 00:15:00
8:35 PM,49.3,17.1,28,30.11,10.0,Calm,Calm,-,N/A,,Clear,0,2013-04-03 00:35:00
8:55 PM,49.6,18.3,29,30.12,10.0,North,3.5,-,N/A,,Clear,360,2013-04-03 00:55:00
9:15 PM,50.4,13.1,23,30.12,10.0,NNW,3.5,-,N/A,,Clear,340,2013-04-03 01:15:00
9:35 PM,50.2,13.1,23,30.13,10.0,North,3.5,-,N/A,,Clear,360,2013-04-03 01:35:00
9:55 PM,50.0,12.9,23,30.14,10.0,North,5.8,-,N/A,,Clear,350,2013-04-03 01:55:00
10:15 PM,48.4,12.7,24,30.14,10.0,NNW,6.9,-,N/A,,Clear,340,2013-04-03 02:15:00
10:35 PM,48.4,11.7,23,30.15,10.0,NNW,6.9,-,N/A,,Clear,340,2013-04-03 02:35:00
10:55 PM,48.2,12.2,24,30.16,10.0,North,4.6,-,N/A,,Clear,350,2013-04-03 02:55:00
11:15 PM,47.7,11.7,23,30.17,10.0,North,5.8,-,N/A,,Clear,350,2013-04-03 03:15:00
11:35 PM,46.9,11.8,24,30.17,10.0,North,5.8,-,N/A,,Clear,360,2013-04-03 03:35:00
11:55 PM,45.9,11.3,25,30.17,10.0,North,3.5,-,N/A,,Clear,10,2013-04-03 03:55:00